Time,TemperatureF,DewpointF,PressureIn,WindDirection,WindDirectionDegrees,WindSpeedMPH,WindSpeedGustMPH,Humidity,HourlyPrecipIn,Conditions,Clouds,dailyrainin,SoftwareType,DateUTC
2013-01-21 00:08:00,7.6,2.0,30.15,West,274,0.0,-999.0,78,-99.99,,,0.00,weatherlink.com 1.10,2013-01-21 05:08:00,
2013-01-21 00:23:00,7.6,2.0,30.15,West,274,0.0,-999.0,79,-99.99,,,0.00,weatherlink.com 1.10,2013-01-21 05:23:00,
2013-01-21 00:38:00,7.9,3.0,30.14,West,274,0.0,-999.0,81,-99.99,,,0.00,weatherlink.com 1.10,2013-01-21 05:38:00,
2013-01-21 00:53:00,8.3,4.0,30.13,West,274,0.0,-999.0,81,-99.99,,,0.00,weatherlink.com 1.10,2013-01-21 05:53:00,
2013-01-21 01:08:00,8.4,4.0,30.13,West,274,0.0,-999.0,81,-99.99,,,0.00,weatherlink.com 1.10,2013-01-21 06:08:00,
2013-01-21 01:23:00,9.0,5.0,30.12,West,274,0.0,-999.0,82,-99.99,,,0.00,weatherlink.com 1.10,2013-01-21 06:23:00,
2013-01-21 01:38:00,9.2,5.0,30.11,West,274,0.0,-999.0,83,-99.99,,,0.00,weatherlink.com 1.10,2013-01-21 06:38:00,
2013-01-21 01:53:00,9.3,5.0,30.11,West,274,0.0,-999.0,84,-99.99,,,0.00,weatherlink.com 1.10,2013-01-21 06:53:00,
2013-01-21 02:08:00,9.3,5.0,30.11,West,274,0.0,-999.0,84,-99.99,,,0.00,weatherlink.com 1.10,2013-01-21 07:08:00,
2013-01-21 02:23:00,9.7,6.0,30.11,West,274,0.0,-999.0,85,-99.99,,,0.00,weatherlink.com 1.10,2013-01-21 07:23:00,
2013-01-21 02:38:00,9.9,7.0,30.11,West,274,0.0,-999.0,86,-99.99,,,0.00,weatherlink.com 1.10,2013-01-21 07:38:00,
2013-01-21 02:53:00,10.0,7.0,30.10,West,274,2.0,-999.0,86,-99.99,,,0.00,weatherlink.com 1.10,2013-01-21 07:53:00,
2013-01-21 03:08:00,10.2,7.0,30.10,West,274,0.0,-999.0,87,-99.99,,,0.00,weatherlink.com 1.10,2013-01-21 08:08:00,
2013-01-21 03:23:00,10.4,7.0,30.10,West,274,0.0,-999.0,87,-99.99,,,0.00,weatherlink.com 1.10,2013-01-21 08:23:00,
2013-01-21 03:38:00,10.4,7.0,30.09,West,274,0.0,-999.0,87,-99.99,,,0.00,weatherlink.com 1.10,2013-01-21 08:38:00,
2013-01-21 03:53:00,10.4,7.0,30.08,West,274,2.0,-999.0,87,-99.99,,,0.00,weatherlink.com 1.10,2013-01-21 08:53:00,
2013-01-21 04:08:00,10.4,7.0,30.07,South,176,0.0,-999.0,87,-99.99,,,0.00,weatherlink.com 1.10,2013-01-21 09:08:00,
2013-01-21 04:23:00,10.4,7.0,30.07,South,181,0.0,-999.0,87,-99.99,,,0.00,weatherlink.com 1.10,2013-01-21 09:23:00,
2013-01-21 04:38:00,10.2,7.0,30.06,South,181,0.0,-999.0,87,-99.99,,,0.00,weatherlink.com 1.10,2013-01-21 09:38:00,
2013-01-21 04:53:00,10.2,7.0,30.05,South,181,0.0,-999.0,87,-99.99,,,0.00,weatherlink.com 1.10,2013-01-21 09:53:00,
2013-01-21 05:08:00,10.2,7.0,30.05,South,181,0.0,-999.0,87,-99.99,,,0.00,weatherlink.com 1.10,2013-01-21 10:08:00,
2013-01-21 05:23:00,10.2,7.0,30.05,South,181,0.0,-999.0,86,-99.99,,,0.00,weatherlink.com 1.10,2013-01-21 10:23:00,
2013-01-21 05:38:00,10.2,7.0,30.04,South,181,0.0,-999.0,87,-99.99,,,0.00,weatherlink.com 1.10,2013-01-21 10:38:00,
2013-01-21 05:53:00,10.0,7.0,30.04,South,181,0.0,-999.0,86,-99.99,,,0.00,weatherlink.com 1.10,2013-01-21 10:53:00,
2013-01-21 06:08:00,10.0,6.0,30.03,SSW,193,0.0,-999.0,85,-99.99,,,0.00,weatherlink.com 1.10,2013-01-21 11:08:00,
2013-01-21 06:23:00,10.0,6.0,30.03,SSW,193,0.0,-999.0,85,-99.99,,,0.00,weatherlink.com 1.10,2013-01-21 11:23:00,
2013-01-21 06:38:00,9.9,6.0,30.03,SSW,193,0.0,-999.0,84,-99.99,,,0.00,weatherlink.com 1.10,2013-01-21 11:38:00,
2013-01-21 06:53:00,9.7,6.0,30.03,SSW,193,0.0,-999.0,85,-99.99,,,0.00,weatherlink.com 1.10,2013-01-21 11:53:00,
2013-01-21 07:08:00,9.7,6.0,30.03,SSW,193,0.0,-999.0,85,-99.99,,,0.00,weatherlink.com 1.10,2013-01-21 12:08:00,
2013-01-21 07:23:00,9.7,6.0,30.02,SSW,193,0.0,-999.0,85,-99.99,,,0.00,weatherlink.com 1.10,2013-01-21 12:23:00,
2013-01-21 07:38:00,9.5,6.0,30.02,SSW,193,0.0,-999.0,85,-99.99,,,0.00,weatherlink.com 1.10,2013-01-21 12:38:00,
2013-01-21 07:53:00,9.5,6.0,30.02,SSW,193,0.0,-999.0,85,-99.99,,,0.00,weatherlink.com 1.10,2013-01-21 12:53:00,
2013-01-21 08:08:00,9.5,6.0,30.01,SSW,193,0.0,-999.0,85,-99.99,,,0.00,weatherlink.com 1.10,2013-01-21 13:08:00,
2013-01-21 08:23:00,9.5,6.0,30.01,SSW,193,0.0,-999.0,85,-99.99,,,0.00,weatherlink.com 1.10,2013-01-21 13:23:00,
2013-01-21 08:38:00,9.5,6.0,30.01,SSW,193,0.0,-999.0,85,-99.99,,,0.00,weatherlink.com 1.10,2013-01-21 13:38:00,
2013-01-21 08:53:00,9.3,6.0,30.01,SSW,193,0.0,-999.0,85,-99.99,,,0.00,weatherlink.com 1.10,2013-01-21 13:53:00,
2013-01-21 09:08:00,9.5,6.0,30.01,SSW,202,0.0,-999.0,84,-99.99,,,0.00,weatherlink.com 1.10,2013-01-21 14:08:00,
2013-01-21 09:23:00,9.7,4.0,30.01,NW,306,0.0,-999.0,79,-99.99,,,0.00,weatherlink.com 1.10,2013-01-21 14:23:00,
2013-01-21 09:38:00,9.9,5.0,30.01,WNW,299,0.0,-999.0,80,-99.99,,,0.00,weatherlink.com 1.10,2013-01-21 14:38:00,
2013-01-21 09:53:00,10.0,5.0,30.01,WNW,299,0.0,-999.0,79,-99.99,,,0.00,weatherlink.com 1.10,2013-01-21 14:53:00,
2013-01-21 10:09:00,10.4,4.0,30.01,WNW,299,0.0,-999.0,75,-99.99,,,0.00,weatherlink.com 1.10,2013-01-21 15:09:00,
2013-01-21 10:24:00,10.5,2.0,30.01,West,270,10.0,-999.0,69,-99.99,,,0.00,weatherlink.com 1.10,2013-01-21 15:24:00,
2013-01-21 10:39:00,10.5,3.0,30.01,NW,319,5.0,-999.0,71,-99.99,,,0.00,weatherlink.com 1.10,2013-01-21 15:39:00,
2013-01-21 10:54:00,10.5,1.0,30.01,NNW,329,2.0,-999.0,66,-99.99,,,0.00,weatherlink.com 1.10,2013-01-21 15:54:00,
2013-01-21 11:09:00,10.9,1.0,30.01,WSW,257,5.0,-999.0,65,-99.99,,,0.00,weatherlink.com 1.10,2013-01-21 16:09:00,
2013-01-21 11:24:00,10.4,5.0,30.01,West,280,3.0,-999.0,77,-99.99,,,0.00,weatherlink.com 1.10,2013-01-21 16:24:00,
2013-01-21 11:39:00,9.9,6.0,30.02,NNW,337,5.0,-999.0,82,-99.99,,,0.00,weatherlink.com 1.10,2013-01-21 16:39:00,
2013-01-21 11:54:00,9.3,5.0,30.02,NNW,333,2.0,-999.0,82,-99.99,,,0.00,weatherlink.com 1.10,2013-01-21 16:54:00,
2013-01-21 12:09:00,9.3,5.0,30.01,West,277,6.0,-999.0,81,-99.99,,,0.00,weatherlink.com 1.10,2013-01-21 17:09:00,
2013-01-21 12:24:00,9.7,5.0,30.01,West,280,6.0,-999.0,80,-99.99,,,0.00,weatherlink.com 1.10,2013-01-21 17:24:00,
2013-01-21 12:39:00,9.2,4.0,30.00,West,271,10.0,-999.0,79,-99.99,,,0.00,weatherlink.com 1.10,2013-01-21 17:39:00,
2013-01-21 12:54:00,9.3,4.0,30.00,NW,318,2.0,-999.0,78,-99.99,,,0.00,weatherlink.com 1.10,2013-01-21 17:54:00,
2013-01-21 13:09:00,9.2,6.0,29.99,WNW,298,1.0,-999.0,86,-99.99,,,0.00,weatherlink.com 1.10,2013-01-21 18:09:00,
2013-01-21 13:24:00,9.0,3.0,29.99,West,270,4.0,-999.0,75,-99.99,,,0.00,weatherlink.com 1.10,2013-01-21 18:24:00,
2013-01-21 13:39:00,9.7,1.0,29.99,West,263,2.0,-999.0,68,-99.99,,,0.00,weatherlink.com 1.10,2013-01-21 18:39:00,
2013-01-21 13:54:00,10.2,2.0,29.98,WNW,282,1.0,-999.0,70,-99.99,,,0.00,weatherlink.com 1.10,2013-01-21 18:54:00,
2013-01-21 14:09:00,9.3,3.0,29.99,West,278,7.0,-999.0,74,-99.99,,,0.00,weatherlink.com 1.10,2013-01-21 19:09:00,
2013-01-21 14:24:00,9.5,0.0,29.99,NW,322,8.0,-999.0,66,-99.99,,,0.00,weatherlink.com 1.10,2013-01-21 19:24:00,
2013-01-21 14:39:00,9.5,3.0,29.99,WNW,287,4.0,-999.0,74,-99.99,,,0.00,weatherlink.com 1.10,2013-01-21 19:39:00,
2013-01-21 14:54:00,9.5,2.0,29.99,West,281,2.0,-999.0,72,-99.99,,,0.00,weatherlink.com 1.10,2013-01-21 19:54:00,
2013-01-21 15:10:00,9.0,-2.0,30.00,West,280,5.0,-999.0,61,-99.99,,,0.00,weatherlink.com 1.10,2013-01-21 20:10:00,
2013-01-21 15:25:00,8.8,-1.0,30.00,West,271,8.0,-999.0,65,-99.99,,,0.00,weatherlink.com 1.10,2013-01-21 20:25:00,
2013-01-21 15:40:00,7.9,2.0,30.01,NW,318,2.0,-999.0,76,-99.99,,,0.00,weatherlink.com 1.10,2013-01-21 20:40:00,
2013-01-21 15:55:00,7.9,1.0,30.01,West,261,3.0,-999.0,74,-99.99,,,0.00,weatherlink.com 1.10,2013-01-21 20:55:00,
2013-01-21 16:10:00,7.7,3.0,30.02,South,189,2.0,-999.0,79,-99.99,,,0.00,weatherlink.com 1.10,2013-01-21 21:10:00,
2013-01-21 16:25:00,7.4,3.0,30.02,West,278,7.0,-999.0,80,-99.99,,,0.00,weatherlink.com 1.10,2013-01-21 21:25:00,
2013-01-21 16:40:00,7.6,2.0,30.03,West,267,5.0,-999.0,78,-99.99,,,0.00,weatherlink.com 1.10,2013-01-21 21:40:00,
2013-01-21 16:55:00,7.6,1.0,30.02,West,280,7.0,-999.0,73,-99.99,,,0.00,weatherlink.com 1.10,2013-01-21 21:55:00,
2013-01-21 17:10:00,7.0,1.0,30.04,NW,325,7.0,-999.0,76,-99.99,,,0.00,weatherlink.com 1.10,2013-01-21 22:10:00,
2013-01-21 17:25:00,6.9,1.0,30.04,WNW,291,3.0,-999.0,76,-99.99,,,0.00,weatherlink.com 1.10,2013-01-21 22:25:00,
2013-01-21 17:40:00,6.7,-1.0,30.04,West,271,4.0,-999.0,72,-99.99,,,0.00,weatherlink.com 1.10,2013-01-21 22:40:00,
2013-01-21 17:55:00,6.3,0.0,30.05,NNW,330,2.0,-999.0,75,-99.99,,,0.00,weatherlink.com 1.10,2013-01-21 22:55:00,
2013-01-21 18:10:00,6.3,-1.0,30.05,NW,313,0.0,-999.0,73,-99.99,,,0.00,weatherlink.com 1.10,2013-01-21 23:10:00,
2013-01-21 18:26:00,6.1,-1.0,30.05,WNW,294,6.0,-999.0,72,-99.99,,,0.00,weatherlink.com 1.10,2013-01-21 23:26:00,
2013-01-21 18:41:00,5.6,-1.0,30.06,NW,322,5.0,-999.0,74,-99.99,,,0.00,weatherlink.com 1.10,2013-01-21 23:41:00,
2013-01-21 18:56:00,5.4,-2.0,30.07,WNW,301,3.0,-999.0,71,-99.99,,,0.00,weatherlink.com 1.10,2013-01-21 23:56:00,
2013-01-21 19:11:00,5.2,-3.0,30.07,WNW,284,7.0,-999.0,70,-99.99,,,0.00,weatherlink.com 1.10,2013-01-22 00:11:00,
2013-01-21 19:26:00,4.7,-1.0,30.08,West,277,6.0,-999.0,76,-99.99,,,0.00,weatherlink.com 1.10,2013-01-22 00:26:00,
2013-01-21 19:41:00,4.7,-2.0,30.08,NW,323,2.0,-999.0,74,-99.99,,,0.00,weatherlink.com 1.10,2013-01-22 00:41:00,
2013-01-21 19:56:00,4.3,-1.0,30.09,NW,309,4.0,-999.0,77,-99.99,,,0.00,weatherlink.com 1.10,2013-01-22 00:56:00,
2013-01-21 20:11:00,3.7,-3.0,30.09,WNW,284,2.0,-999.0,75,-99.99,,,0.00,weatherlink.com 1.10,2013-01-22 01:11:00,
2013-01-21 20:26:00,3.5,-3.0,30.09,WNW,299,6.0,-999.0,75,-99.99,,,0.00,weatherlink.com 1.10,2013-01-22 01:26:00,
2013-01-21 20:41:00,3.2,-3.0,30.10,NW,326,7.0,-999.0,75,-99.99,,,0.00,weatherlink.com 1.10,2013-01-22 01:41:00,
2013-01-21 20:56:00,2.8,-3.0,30.11,WSW,248,5.0,-999.0,76,-99.99,,,0.00,weatherlink.com 1.10,2013-01-22 01:56:00,
2013-01-21 21:11:00,2.6,-3.0,30.11,NW,319,5.0,-999.0,77,-99.99,,,0.00,weatherlink.com 1.10,2013-01-22 02:11:00,
2013-01-21 21:26:00,2.4,-3.0,30.11,NW,305,6.0,-999.0,77,-99.99,,,0.00,weatherlink.com 1.10,2013-01-22 02:26:00,
2013-01-21 21:41:00,2.0,-3.0,30.12,West,261,5.0,-999.0,79,-99.99,,,0.00,weatherlink.com 1.10,2013-01-22 02:41:00,
2013-01-21 21:57:00,1.8,-4.0,30.12,NNW,333,5.0,-999.0,78,-99.99,,,0.00,weatherlink.com 1.10,2013-01-22 02:57:00,
2013-01-21 22:12:00,1.7,-4.0,30.12,West,267,3.0,-999.0,78,-99.99,,,0.00,weatherlink.com 1.10,2013-01-22 03:12:00,
2013-01-21 22:27:00,1.7,-4.0,30.12,WNW,284,2.0,-999.0,76,-99.99,,,0.00,weatherlink.com 1.10,2013-01-22 03:27:00,
2013-01-21 22:42:00,1.5,-4.0,30.12,West,272,0.0,-999.0,77,-99.99,,,0.00,weatherlink.com 1.10,2013-01-22 03:42:00,
2013-01-21 22:57:00,1.7,-4.0,30.12,NW,316,3.0,-999.0,77,-99.99,,,0.00,weatherlink.com 1.10,2013-01-22 03:57:00,
2013-01-21 23:12:00,1.5,-4.0,30.12,NW,305,5.0,-999.0,76,-99.99,,,0.00,weatherlink.com 1.10,2013-01-22 04:12:00,
2013-01-21 23:27:00,1.5,-5.0,30.13,NW,313,1.0,-999.0,74,-99.99,,,0.00,weatherlink.com 1.10,2013-01-22 04:27:00,
2013-01-21 23:42:00,1.5,-5.0,30.13,WNW,295,0.0,-999.0,74,-99.99,,,0.00,weatherlink.com 1.10,2013-01-22 04:42:00,
2013-01-21 23:57:00,1.5,-4.0,30.13,WNW,296,0.0,-999.0,77,-99.99,,,0.00,weatherlink.com 1.10,2013-01-22 04:57:00,